Theta_e
286 286 286 285 286 286 287 286 286 285 284 284 283 282 281 281 278 275 275 275 275 277 278 276 278 280 280 280 281 281 281 282 282 281 280 280 280 281 283 284 285 285 285 286 286 286 286 287 288 288 289 290 291 291 291 292 292 292 292 293 294 294 295 295 295 295 295 296 296 296 297 297 298 298
286 286 285 285 285 286 286 285 285 284 284 283 282 282 282 282 279 279 276 276 278 277 278 278 277 278 278 279 280 281 280 282 281 280 280 279 279 281 282 283 283 284 284 284 285 285 286 286 287 287 288 289 290 290 291 292 292 292 292 293 293 293 294 294 294 294 295 295 296 296 296 296 297 297
286 285 285 285 284 285 285 285 284 284 283 282 282 281 282 281 281 280 279 276 279 280 277 277 278 277 278 278 279 280 280 281 281 280 279 279 281 281 281 281 282 283 284 284 285 285 285 286 286 287 288 288 289 289 290 290 291 291 291 292 292 292 292 293 293 293 294 294 295 295 295 296 296 296
286 285 284 284 284 284 284 284 284 283 283 282 281 280 280 280 281 281 279 278 278 281 276 277 277 277 277 278 277 278 279 280 281 279 279 279 280 279 279 280 281 282 283 283 284 285 285 286 286 286 286 287 288 288 289 289 289 290 290 291 291 292 292 293 293 293 293 294 295 296 296 296 297 297
285 285 284 284 284 284 283 283 283 283 282 282 281 280 280 279 280 279 278 277 277 277 277 277 276 277 277 276 277 277 277 278 279 279 279 279 278 278 278 278 280 281 282 282 283 283 284 284 284 285 286 286 287 288 288 288 289 289 289 289 290 291 292 293 293 293 293 294 295 295 296 296 296 296
285 284 284 284 284 284 283 283 282 282 282 280 280 279 279 278 278 279 278 277 277 276 276 276 277 276 277 274 277 275 276 276 277 277 277 278 278 278 278 278 278 280 281 281 282 283 283 283 284 284 284 284 286 287 286 287 287 287 287 287 288 289 291 291 291 291 292 293 294 295 295 295 296 297
285 284 284 283 283 284 282 282 282 281 280 279 279 278 278 278 278 278 279 278 276 276 275 276 275 274 275 274 275 276 277 277 277 277 277 277 278 278 278 278 278 280 281 281 282 282 283 283 283 284 284 284 286 286 286 286 286 287 287 287 288 288 289 289 290 291 291 291 293 293 294 295 295 296
284 284 284 283 283 283 281 282 281 280 280 279 279 278 278 278 277 278 278 278 277 276 276 274 274 275 274 275 276 276 277 276 276 276 277 277 277 277 278 278 277 279 280 281 281 281 282 282 283 283 283 283 284 284 284 284 285 285 285 285 286 287 287 287 288 289 289 290 290 291 292 293 294 294
284 284 283 283 283 282 281 280 280 280 279 279 278 278 278 277 277 277 277 277 277 276 275 275 275 276 275 276 276 276 275 275 276 276 275 276 276 276 277 278 278 279 280 280 280 281 281 281 281 282 282 283 283 284 284 284 284 284 284 285 285 285 286 286 286 287 287 287 288 289 290 291 291 290
285 284 284 283 283 282 281 280 280 280 279 278 278 277 277 277 277 276 276 276 276 276 275 275 274 275 274 275 275 276 275 274 274 274 275 275 276 276 275 276 277 278 277 277 277 278 279 279 280 280 281 281 282 282 282 283 283 283 283 283 283 284 284 285 285 285 285 286 286 286 287 288 288 288
285 284 284 284 283 282 281 281 280 280 279 278 278 278 277 277 276 276 275 275 275 275 275 275 275 274 275 275 273 275 276 275 275 273 273 273 275 275 275 275 276 277 277 278 279 278 278 278 278 279 279 280 281 281 281 282 282 282 282 282 283 283 284 284 284 285 285 285 286 286 286 286 287 288
284 284 284 284 283 282 282 282 281 280 279 279 278 278 278 277 276 275 275 275 274 274 274 274 274 274 273 274 275 275 275 273 273 274 273 272 273 274 275 275 275 276 276 275 275 277 277 278 278 279 279 279 280 280 280 280 280 280 281 282 282 283 283 283 284 284 284 285 285 285 286 286 286 287
284 283 283 283 283 283 283 283 283 282 281 279 277 278 277 276 275 275 274 274 274 273 273 273 274 273 273 273 273 272 272 271 271 273 273 272 274 274 274 275 275 275 274 274 274 274 275 274 274 275 275 275 277 277 278 278 279 279 280 281 282 282 282 283 283 283 284 284 284 285 285 286 286 286
283 283 283 284 284 284 283 283 283 283 282 281 280 278 277 276 275 274 274 273 273 273 272 272 273 272 272 273 273 272 273 274 274 273 273 272 273 273 272 273 274 275 274 273 272 273 275 274 274 274 274 275 276 276 276 275 276 278 280 280 281 281 281 282 282 283 283 284 284 284 285 285 285 286
283 283 283 283 284 284 283 283 283 283 282 282 281 280 280 279 276 274 274 273 273 273 272 273 273 272 272 273 274 273 273 273 273 273 273 272 272 271 269 268 272 275 274 272 272 272 275 275 273 274 274 274 275 275 275 278 279 279 280 281 281 282 282 282 283 283 283 284 284 284 285 285 285 285
283 283 283 283 283 283 283 282 282 282 282 281 281 280 280 280 279 279 276 274 273 273 272 272 272 272 272 273 273 273 273 273 273 273 273 272 271 270 269 269 268 273 275 272 271 271 274 274 273 272 273 274 274 274 277 278 279 280 280 281 281 282 282 282 283 283 283 284 284 284 285 285 285 285
283 283 283 283 283 282 283 283 282 281 281 281 281 280 280 280 280 279 279 278 276 275 273 273 272 273 273 272 273 274 273 274 272 273 271 271 271 270 270 270 270 272 274 272 270 269 272 272 271 271 272 273 273 274 276 278 279 279 280 280 281 281 282 282 283 283 283 284 284 284 284 284 285 285
283 283 283 282 281 281 282 282 281 280 280 279 279 279 278 277 278 279 279 279 278 277 275 274 273 274 275 273 274 275 275 273 271 271 270 271 270 270 269 271 271 272 274 270 269 267 269 271 270 269 271 272 272 273 275 277 278 279 279 280 280 281 281 282 282 283 283 283 283 283 284 284 284 284
284 284 283 282 281 281 280 281 281 279 279 278 278 278 277 276 277 277 277 277 276 276 275 275 275 275 275 275 275 275 275 274 273 272 271 271 271 271 271 270 271 270 272 271 269 264 269 271 269 269 270 271 271 272 274 276 277 278 279 279 280 280 281 282 282 282 283 283 283 283 283 283 283 284
284 284 283 282 282 281 280 280 281 280 279 278 277 276 276 275 276 276 278 279 279 277 276 275 275 276 276 276 274 274 273 273 273 272 272 270 269 268 267 266 268 268 271 272 269 267 267 270 268 268 270 270 269 271 271 274 276 277 278 279 279 280 281 281 281 282 282 282 282 282 283 283 283 283
284 283 283 283 281 280 279 280 281 281 280 277 276 275 274 274 274 275 277 279 280 279 278 278 278 278 278 278 277 277 276 274 273 270 269 268 269 267 265 265 266 266 268 270 270 268 266 268 268 267 268 269 269 269 270 271 274 276 277 278 279 279 280 280 280 281 281 281 281 282 282 282 282 281
283 283 283 283 281 279 278 280 281 281 279 276 275 274 273 273 273 273 275 276 277 279 279 278 278 278 278 277 277 276 276 275 273 269 267 268 268 266 266 264 265 266 266 267 269 264 264 267 267 266 267 267 267 268 269 270 271 274 275 276 277 277 277 278 279 279 279 280 280 280 281 281 280 278
281 281 282 283 281 278 278 281 281 281 279 276 275 274 273 272 272 272 274 274 274 275 275 275 274 272 271 268 268 271 273 273 272 269 268 268 266 265 265 264 264 263 264 266 268 263 264 264 266 265 262 262 265 268 268 269 271 271 271 271 271 274 275 275 276 277 278 278 279 279 280 280 280 277
278 279 279 281 281 280 280 281 281 281 280 276 276 275 273 272 271 273 274 274 274 273 272 271 269 267 264 264 263 263 264 265 265 265 266 267 266 264 264 263 263 262 263 265 266 264 264 263 263 264 262 260 259 264 266 266 267 268 268 268 268 271 273 273 273 274 275 276 277 278 279 280 279 276
276 276 277 278 280 280 280 280 281 281 280 278 276 274 273 273 273 274 272 273 273 271 269 267 267 266 266 265 265 263 262 261 262 262 263 264 265 264 263 262 262 262 264 266 269 264 261 262 261 261 262 261 261 261 263 264 266 266 267 268 267 268 269 269 270 269 272 274 275 277 278 279 279 277
276 276 276 276 278 280 280 280 281 281 280 278 275 275 276 277 276 273 273 272 271 269 268 268 268 267 266 266 265 264 264 263 262 261 261 261 261 262 261 262 262 262 263 265 268 263 261 260 261 260 260 259 260 261 260 261 263 265 267 267 268 268 268 268 268 269 270 270 270 272 273 277 278 279
275 275 275 276 278 279 280 280 280 281 280 277 275 278 278 277 276 273 271 269 269 268 268 268 267 267 266 266 265 264 264 263 261 261 260 259 259 260 260 261 262 262 263 263 262 261 260 259 260 258 258 259 258 259 259 259 261 264 265 266 267 267 268 268 268 268 269 269 270 274 276 277 278 279
275 275 275 276 279 279 279 280 280 280 278 275 277 278 277 276 273 270 269 269 268 267 267 267 266 266 266 266 265 265 265 263 260 260 259 258 258 258 259 260 260 261 261 260 260 259 259 259 259 260 259 258 257 257 257 260 262 262 262 265 266 266 267 268 268 268 269 269 269 270 270 271 272 273
275 276 277 279 279 279 279 279 279 279 277 278 277 277 275 271 269 269 269 268 267 266 266 266 266 266 265 265 264 262 261 259 258 257 257 257 258 259 259 258 259 259 259 259 259 259 259 259 258 259 259 259 258 258 259 258 260 261 262 263 263 265 266 268 268 267 268 268 269 269 270 271 272 273
277 278 278 279 279 278 278 278 277 275 275 277 277 274 271 269 269 268 268 267 266 266 266 265 265 265 264 262 261 260 260 260 260 261 261 261 260 259 259 260 260 260 259 259 259 259 259 259 259 259 259 259 260 259 260 259 259 261 263 263 263 265 266 266 266 268 268 269 270 270 272 272 271 271
276 277 277 277 278 278 278 277 276 276 276 273 271 270 269 269 268 268 267 267 266 265 265 265 265 263 262 261 259 260 260 261 262 262 261 261 262 262 262 261 261 263 264 261 261 261 260 260 260 259 258 259 260 260 261 261 260 261 262 263 263 261 264 266 267 267 268 269 270 270 270 270 270 271
276 277 277 274 271 271 270 270 269 270 269 268 268 268 267 266 266 267 268 267 265 265 265 264 262 261 261 262 262 262 262 263 263 261 261 261 261 262 261 260 261 262 263 263 263 262 263 262 261 261 261 260 260 261 262 262 261 261 261 263 263 264 265 265 267 268 269 269 267 267 268 268 268 269
272 271 270 270 270 268 267 267 266 266 266 266 266 265 264 264 264 264 264 263 263 262 262 262 262 262 262 263 262 262 263 263 262 262 261 261 260 261 261 260 261 261 262 262 263 264 263 263 264 263 263 263 263 262 261 260 261 262 261 262 263 264 266 267 266 266 268 266 265 266 265 267 268 268
271 270 269 268 268 267 266 265 264 264 263 264 263 264 265 263 263 263 264 263 262 262 263 263 263 263 263 263 263 263 263 262 262 262 263 260 260 259 260 260 261 262 261 261 262 263 263 263 263 264 264 264 264 264 262 261 260 261 262 263 264 264 265 265 266 266 266 265 265 263 264 265 266 268
271 270 269 268 268 267 267 266 264 264 264 263 263 263 263 263 263 263 263 262 261 261 261 262 262 263 263 263 263 262 262 262 262 261 261 260 260 260 260 260 260 261 260 261 261 262 263 262 262 262 262 262 261 263 267 264 261 262 263 264 265 264 264 265 265 265 265 265 265 263 263 264 265 268
271 270 269 268 268 268 267 266 265 265 265 264 263 262 262 262 262 262 262 261 261 261 261 261 261 261 262 262 261 261 261 260 261 261 261 261 260 260 260 260 260 260 260 260 261 262 262 262 262 260 258 258 258 258 260 268 268 263 263 263 264 263 264 264 264 264 264 264 264 263 262 262 264 267
270 270 270 269 269 268 267 266 267 266 265 265 264 264 263 262 262 262 261 261 261 261 261 262 261 261 261 261 260 259 259 259 261 261 260 261 260 259 259 260 260 260 260 260 261 261 262 261 261 260 258 256 256 256 258 262 265 268 263 262 262 263 263 263 263 263 264 264 263 263 263 264 265 267
270 270 269 269 269 269 267 267 267 266 265 265 265 264 264 262 261 258 259 260 260 260 260 261 261 260 260 260 261 260 260 260 260 260 260 260 259 259 259 258 258 259 259 260 260 261 262 261 261 259 257 256 255 255 256 260 260 262 265 263 261 262 263 262 262 262 262 263 263 264 265 265 266 268
270 269 269 268 269 268 267 267 266 266 265 265 264 264 263 261 259 258 259 260 260 260 260 261 260 260 259 259 260 261 260 260 260 260 259 259 259 258 257 258 257 259 258 259 260 260 261 260 260 259 258 256 255 256 257 256 257 260 263 267 264 262 262 263 262 262 262 262 263 265 266 268 270 273
270 270 270 269 269 268 267 266 266 266 265 265 264 264 262 260 259 259 259 260 259 259 261 260 260 259 258 259 258 259 258 256 258 259 259 259 258 257 257 257 257 257 257 258 258 259 260 260 260 259 259 259 259 259 259 259 259 260 260 263 268 266 264 263 262 261 261 262 263 263 263 266 266 268
269 269 269 269 269 268 267 266 266 265 264 264 263 263 262 261 260 260 260 260 259 259 260 260 259 258 258 257 257 258 258 259 259 259 258 257 257 257 257 256 256 257 257 257 257 258 259 260 261 262 260 260 260 260 258 257 257 259 260 262 266 268 268 266 263 262 261 263 263 263 263 263 264 265
269 269 268 268 268 267 267 266 265 264 263 263 263 262 261 261 261 262 261 260 259 259 259 259 259 258 258 258 257 257 258 259 259 259 258 258 257 257 257 256 256 257 256 256 257 258 260 260 260 260 260 260 259 258 256 257 256 258 259 260 261 266 267 268 268 266 264 263 263 263 263 263 264 264
268 268 267 267 267 266 266 265 265 264 263 262 262 262 261 261 261 261 260 259 258 258 259 260 259 259 259 258 258 258 258 258 258 257 257 256 256 256 256 257 257 256 256 256 257 258 259 259 259 259 259 259 259 258 257 257 257 257 258 258 259 261 262 266 266 266 267 267 268 267 266 264 262 261
267 266 266 266 265 265 265 264 264 264 263 262 262 261 261 261 261 260 260 260 259 258 259 260 259 259 259 259 258 257 257 258 258 257 256 256 256 256 255 256 256 255 256 256 257 258 258 258 258 259 258 258 258 258 257 257 257 257 257 258 259 259 259 260 261 263 265 265 267 269 269 270 269 269
267 267 266 265 265 265 264 264 264 263 263 262 262 261 261 261 261 261 261 260 259 259 259 259 259 259 259 258 258 257 257 259 258 257 256 256 256 256 255 255 255 255 256 256 256 256 257 257 257 258 258 258 258 258 258 258 257 257 257 257 257 258 258 258 257 258 259 261 266 268 269 269 269 269
Wind_Speed
11 11 13 12 11 11 10 9 10 10 9 9 9 10 11 11 10 6 8 10 8 11 10 9 9 9 8 8 7 8 9 10 12 10 9 9 7 13 18 18 17 17 17 17 18 19 19 19 20 20 21 22 23 23 24 24 25 25 26 26 27 27 28 28 28 27 27 27 28 28 28 28 28 28
10 10 10 10 11 11 11 10 11 11 10 9 10 10 10 11 13 7 8 7 8 7 9 8 8 9 8 8 7 7 9 12 14 10 9 9 8 13 15 16 17 17 17 18 18 19 20 20 21 22 22 23 24 24 24 25 26 26 27 27 28 28 28 28 28 28 28 28 28 28 29 29 29 29
12 12 13 12 11 11 11 10 9 9 10 10 9 9 9 9 14 11 8 7 6 8 7 8 7 10 10 8 7 6 7 10 13 10 9 9 11 13 11 15 16 17 18 19 19 20 21 21 22 23 23 24 24 25 25 25 26 26 27 28 28 28 27 28 28 28 28 29 29 29 29 30 30 30
11 13 14 13 12 11 10 10 10 11 11 9 9 9 9 9 10 11 9 12 8 6 5 6 7 11 10 9 8 7 7 8 16 9 8 8 11 8 8 13 17 18 19 20 20 21 22 22 22 22 22 23 24 25 25 26 26 27 27 28 28 28 28 28 29 29 29 29 30 30 31 31 31 31
12 13 14 14 13 12 11 10 10 11 11 10 9 8 8 9 10 11 11 13 8 3 5 7 7 9 10 9 9 8 8 8 9 10 8 8 8 8 8 8 15 19 20 20 21 22 22 22 22 22 22 23 24 24 25 25 26 26 26 26 27 27 28 28 28 28 29 30 31 31 31 31 32 32
12 12 13 14 13 12 13 12 11 10 11 10 10 9 9 9 10 10 10 10 7 9 6 6 7 8 10 8 10 9 10 9 8 10 9 8 9 8 7 8 8 15 17 19 21 21 22 22 22 22 22 23 23 24 24 24 25 25 25 25 25 26 27 28 29 29 30 31 32 32 33 33 33 33
12 12 12 13 12 9 12 13 12 11 9 8 10 10 9 9 10 10 11 7 8 11 8 8 8 9 9 8 11 10 9 9 8 9 9 8 7 7 8 8 7 12 15 18 19 20 21 21 21 22 22 22 23 23 23 23 24 24 24 25 26 27 28 28 29 30 31 31 32 33 33 33 34 34
12 12 12 12 11 10 10 12 9 9 10 10 9 11 10 10 11 10 11 11 8 10 9 9 10 9 10 8 8 9 8 9 8 8 7 7 7 7 7 8 8 10 16 17 18 19 20 20 21 21 22 21 21 22 22 22 22 23 24 25 26 27 27 28 30 31 32 33 34 34 34 35 35 35
12 12 12 12 9 9 9 8 8 7 14 9 9 9 10 9 9 8 9 10 8 9 11 8 8 8 8 8 8 9 9 9 8 8 8 8 8 9 9 8 8 12 16 17 18 18 20 20 21 22 22 21 21 21 22 22 22 23 24 25 27 28 29 30 31 32 33 33 34 34 35 35 35 35
12 10 10 9 8 10 11 10 10 11 12 10 11 11 9 10 9 9 8 9 9 10 6 11 8 10 9 9 9 10 9 9 8 8 8 9 9 9 8 8 7 6 6 6 7 12 15 17 19 19 19 19 20 20 21 22 22 22 23 24 25 27 28 29 30 31 32 33 33 34 34 34 34 34
11 11 10 10 10 11 11 11 11 11 11 11 12 12 11 9 10 9 9 9 10 10 7 8 9 9 9 9 9 10 9 8 7 7 7 8 8 8 8 8 6 5 6 9 13 12 12 13 11 14 18 20 21 22 22 22 23 23 24 25 25 26 27 29 30 30 31 33 33 33 34 34 34 35
11 12 12 11 11 12 12 12 11 11 11 10 10 9 9 10 11 10 10 9 9 8 8 8 9 9 9 9 8 8 9 8 7 7 7 8 7 8 7 7 5 4 5 6 6 8 10 11 14 17 18 20 22 23 22 24 24 25 26 26 26 27 28 28 29 30 31 32 32 33 33 34 34 34
12 11 12 12 11 13 15 16 15 13 13 11 11 11 10 11 11 8 11 9 8 8 8 8 8 8 9 9 10 10 10 10 9 8 8 8 8 6 5 5 5 6 7 6 6 7 6 7 7 7 7 8 12 14 19 17 22 23 24 25 25 26 27 28 28 30 31 31 32 33 33 34 35 35
12 12 11 12 18 18 18 18 18 18 19 20 15 12 12 12 10 11 10 10 8 9 9 10 10 9 10 10 10 9 9 8 7 8 9 8 6 5 4 5 5 5 6 7 8 7 5 7 7 7 8 7 8 8 8 9 11 16 21 23 24 25 26 27 28 29 30 31 32 32 33 33 35 35
12 12 13 12 13 16 18 17 21 21 19 20 20 20 18 16 15 13 12 8 9 9 9 10 10 10 11 10 8 8 8 7 9 9 7 6 5 4 4 4 3 4 6 6 7 7 5 5 8 7 8 8 8 9 10 16 19 22 23 24 25 25 27 27 29 30 31 31 31 32 33 33 34 35
12 12 12 12 10 10 13 12 14 17 19 21 21 21 21 22 23 20 17 12 9 9 9 10 11 11 10 10 9 8 8 8 8 7 6 6 5 5 5 5 4 3 1 4 6 8 5 5 8 9 9 9 10 11 15 20 21 23 24 25 26 27 28 29 30 31 32 32 32 33 33 34 35 35
12 12 11 10 9 8 17 13 13 13 14 19 22 20 22 23 24 24 23 19 16 14 10 11 12 12 10 11 9 9 9 7 7 7 6 6 5 5 6 6 5 4 4 5 4 7 6 6 9 10 9 9 10 11 15 20 22 23 24 25 26 27 28 29 30 31 32 32 33 33 34 35 36 36
12 12 11 11 9 8 9 9 12 11 11 11 13 14 13 13 20 25 26 25 19 16 13 12 10 10 9 9 9 8 9 9 8 8 8 5 5 4 5 6 6 6 4 4 4 7 7 8 9 11 9 8 10 9 13 19 21 22 23 25 26 28 28 29 30 31 32 32 33 34 34 35 35 35
12 12 12 12 10 10 9 10 12 11 11 11 11 11 11 11 12 13 14 15 13 11 10 9 8 8 8 7 7 8 7 8 6 5 5 4 4 2 1 2 5 7 7 8 6 7 5 5 8 10 9 9 9 8 13 19 21 23 24 25 27 28 29 30 30 31 32 32 33 34 34 34 35 35
11 12 12 13 12 11 11 13 19 15 11 12 10 9 9 9 10 11 14 17 15 10 9 8 7 6 8 9 7 8 8 7 5 4 2 3 2 1 5 7 5 5 6 8 8 7 6 5 9 10 8 9 10 9 9 14 19 21 23 25 26 27 28 29 29 31 31 32 33 33 34 34 34 34
13 13 12 11 9 9 9 13 20 21 19 11 11 10 9 9 9 8 11 19 22 18 16 16 13 14 17 16 17 16 16 10 7 5 5 6 6 5 5 5 4 5 3 3 6 5 7 6 8 10 9 8 10 9 10 9 15 20 22 23 25 25 26 27 29 30 31 32 33 33 34 33 32 34
9 11 18 15 9 10 10 19 23 23 19 12 11 11 10 12 10 9 10 9 12 20 17 18 17 17 18 16 15 17 16 16 11 6 7 6 5 5 4 4 3 3 2 3 2 2 6 5 5 8 8 10 7 9 8 8 9 13 15 19 21 23 23 24 26 28 30 31 32 32 33 32 31 22
8 8 11 16 13 10 14 22 22 25 18 11 11 10 11 10 9 9 12 11 10 10 10 10 9 7 12 10 8 8 13 12 8 3 3 2 3 4 4 4 3 3 3 1 4 3 3 2 4 4 8 6 5 5 5 3 3 5 7 11 14 20 23 26 27 29 30 31 31 31 31 31 28 19
5 5 5 9 16 17 19 20 22 23 21 12 11 10 9 10 9 9 11 9 8 9 8 8 10 8 6 6 6 5 4 4 2 3 2 3 4 5 4 3 3 4 2 1 1 2 2 2 4 1 2 5 7 1 4 9 8 10 10 12 12 15 18 21 21 26 26 26 28 29 30 30 31 20
7 6 7 7 15 19 19 19 21 22 22 17 11 9 8 10 12 14 10 12 13 10 10 9 8 7 5 4 4 4 3 3 3 2 3 3 3 3 4 3 3 5 5 2 7 1 3 1 3 2 4 3 8 10 9 7 10 8 9 10 12 10 10 11 11 14 18 24 26 29 29 30 31 25
7 7 7 7 14 20 18 18 19 20 21 19 9 9 15 20 24 12 10 10 9 8 7 7 6 6 5 5 4 4 3 3 5 3 3 3 2 1 1 3 4 5 3 1 3 1 1 3 3 3 4 4 10 7 14 13 9 10 9 10 9 10 10 13 12 13 12 12 13 16 20 29 29 31
8 6 6 7 17 19 20 19 19 20 23 15 10 18 20 22 24 15 9 9 7 7 7 7 6 5 5 5 5 4 4 4 4 3 3 3 2 1 2 2 3 6 4 2 1 1 1 4 2 3 6 5 10 11 11 11 11 3 10 8 10 10 11 11 13 13 12 13 14 26 28 30 33 33
7 8 7 9 20 18 19 18 18 18 20 12 19 19 21 23 19 10 9 8 7 6 5 5 5 4 4 3 4 4 3 4 3 2 1 1 2 3 3 5 7 8 9 8 5 4 4 5 6 5 6 7 9 11 14 10 10 11 13 11 9 11 10 11 13 13 13 13 14 14 14 16 16 17
7 11 15 19 20 18 17 18 18 17 19 21 20 21 20 16 8 9 7 7 7 6 5 5 4 4 4 3 3 4 4 4 3 1 1 1 3 4 6 7 7 8 7 7 7 7 6 7 8 6 6 7 8 10 9 15 11 14 12 14 14 6 8 10 12 14 14 14 15 15 15 15 16 15
16 17 17 20 19 16 14 11 6 8 11 19 19 19 17 8 7 7 7 7 7 5 5 5 5 5 4 4 4 4 3 2 2 2 2 3 4 5 5 4 6 7 9 9 8 7 7 8 9 8 8 8 9 11 11 13 14 12 13 12 14 14 10 11 10 10 13 16 16 16 16 17 20 19
10 13 12 10 11 8 12 13 16 14 15 13 13 9 7 7 6 6 5 6 5 5 5 5 4 4 5 4 4 2 2 2 2 2 2 2 2 2 1 2 4 4 3 6 7 8 8 9 9 8 8 9 9 11 12 10 14 15 13 11 10 13 13 10 13 13 13 14 16 16 16 18 17 18
8 8 10 12 11 12 12 11 9 9 9 9 8 8 6 6 6 7 9 7 3 3 4 4 5 4 4 3 3 3 2 2 3 3 2 1 0 0 1 1 3 2 3 1 3 7 9 8 8 8 10 10 11 11 9 10 13 15 14 13 12 12 12 13 13 11 13 15 16 17 16 16 17 15
11 11 10 8 8 8 11 10 9 9 10 8 8 8 7 5 5 3 3 4 4 3 4 5 5 5 3 4 3 3 3 3 3 2 1 1 0 1 2 2 3 3 3 4 3 3 2 4 7 9 9 9 11 13 11 12 12 12 13 14 11 12 11 11 12 14 12 13 15 16 18 15 13 16
8 7 7 7 8 7 7 7 7 6 6 8 8 6 7 5 4 4 4 4 4 3 4 4 4 4 4 4 3 3 3 3 2 2 2 1 0 0 1 1 3 2 2 3 4 4 4 4 5 6 7 9 11 13 13 12 14 12 11 11 11 13 12 11 12 13 13 12 14 18 17 18 17 13
8 8 7 7 7 7 7 7 7 7 7 7 7 5 4 3 5 4 4 4 3 3 3 3 3 3 3 4 3 3 3 2 2 2 1 1 1 1 1 2 3 2 3 4 4 4 4 5 5 6 6 6 8 9 17 17 10 11 9 9 10 12 13 12 12 13 13 13 11 16 19 18 20 13
7 6 7 7 7 7 7 7 6 7 7 6 6 6 5 4 3 4 3 4 4 4 3 3 3 3 3 3 3 3 3 1 1 2 2 2 1 1 1 2 3 3 3 3 4 4 5 6 4 5 8 9 9 11 7 11 15 9 9 10 9 12 13 13 14 13 13 13 11 12 16 18 19 19
7 7 7 7 6 7 7 7 7 7 6 6 6 5 4 4 4 3 5 5 4 3 3 3 3 3 3 3 3 2 2 2 2 2 1 1 1 1 2 2 2 2 3 3 3 5 4 5 4 4 5 7 9 10 14 7 11 12 8 9 10 10 14 14 14 14 11 12 15 11 14 17 18 19
6 6 7 7 7 6 6 6 6 6 6 6 5 5 3 4 4 5 4 4 4 3 2 2 3 3 3 3 3 3 2 2 1 1 1 1 1 1 1 1 3 3 3 4 4 4 4 4 4 4 3 6 9 11 14 11 9 10 7 9 12 14 12 13 13 14 16 12 12 14 13 16 17 15
4 5 5 5 5 5 5 5 5 5 5 5 5 5 4 4 4 4 4 4 4 4 3 2 3 3 3 2 1 2 3 3 3 2 1 1 1 1 1 1 3 3 3 5 4 4 4 4 4 3 3 5 8 10 9 12 13 13 17 25 17 13 11 10 13 14 13 16 16 14 13 14 19 27
4 4 5 5 4 4 4 4 4 4 5 5 5 4 5 5 5 4 4 4 4 3 3 3 3 3 2 2 2 2 1 1 1 1 1 1 1 1 1 1 2 3 4 5 5 5 4 4 3 4 5 7 10 10 10 12 13 13 14 16 18 13 12 10 12 14 15 13 14 15 17 16 15 14
3 4 3 3 3 4 4 3 4 4 4 4 4 5 4 5 6 5 5 5 4 4 3 3 3 3 3 3 2 3 3 3 2 2 2 1 1 2 2 1 3 4 4 5 5 6 6 4 7 11 11 10 10 9 8 8 10 10 10 12 16 21 20 16 12 12 13 15 14 14 14 15 15 14
2 3 3 3 3 3 4 4 4 4 4 4 4 4 4 4 3 7 6 5 5 4 3 3 3 3 3 3 2 1 1 2 2 3 2 1 1 1 3 3 4 3 3 6 6 8 7 7 8 8 7 7 7 6 8 9 12 12 11 12 11 15 20 22 22 19 14 13 13 13 14 12 9 11
2 2 3 2 2 2 3 3 3 4 4 4 4 4 5 5 5 6 4 5 4 3 3 3 3 3 3 3 2 3 3 2 2 1 1 2 2 2 2 3 3 3 4 6 7 8 8 7 6 7 6 5 6 5 9 10 10 12 12 11 12 11 13 20 22 23 21 21 18 12 10 11 11 11
2 3 2 2 3 3 3 3 3 3 4 4 4 5 4 5 5 5 4 5 5 5 4 3 3 3 3 3 3 3 3 2 2 2 3 3 2 2 3 3 3 4 5 6 7 6 6 6 6 6 7 6 6 7 9 10 11 11 11 11 11 12 14 13 15 17 17 14 14 16 21 21 18 19
3 3 3 3 3 3 3 3 3 4 4 4 4 4 4 3 4 4 4 4 4 5 4 4 3 3 3 3 3 3 3 4 2 2 1 1 2 3 4 4 4 4 5 5 6 7 6 7 7 6 6 6 6 7 8 9 11 11 11 11 13 11 11 12 13 15 14 13 15 22 24 25 25 25
Wind_Direction
233 229 226 226 230 234 231 226 225 217 212 209 203 195 194 202 210 188 212 213 197 195 171 169 195 191 185 179 182 189 193 193 183 180 189 197 202 203 210 218 225 233 238 242 247 252 256 258 260 261 262 262 262 263 265 266 267 267 267 269 269 269 270 269 268 268 268 268 269 268 268 269 270 272
227 229 229 227 231 230 231 223 222 222 215 206 199 197 194 193 210 193 200 221 198 197 183 172 169 179 181 178 188 188 190 191 180 181 189 198 202 204 205 214 224 232 238 243 248 252 255 259 261 262 263 264 264 265 265 265 267 268 268 269 268 268 268 268 269 270 270 270 269 269 269 269 268 269
222 221 223 222 229 231 231 228 223 219 214 209 194 189 193 186 208 208 205 225 199 191 188 185 162 166 178 182 185 183 188 189 183 185 192 197 200 204 213 220 229 235 240 243 247 251 255 258 259 260 261 261 262 263 263 265 265 267 268 268 268 267 267 268 268 268 268 269 269 270 270 270 269 268
219 219 221 219 219 221 222 223 225 223 220 206 192 187 190 194 196 198 205 218 223 183 147 171 152 160 166 174 177 182 182 184 182 191 194 197 200 212 220 227 233 238 242 246 250 253 255 257 259 260 261 261 262 263 264 264 265 266 266 266 267 267 266 267 267 266 267 268 268 268 269 269 268 267
216 217 220 222 218 213 213 212 215 222 224 212 202 194 195 196 191 192 201 215 210 141 135 163 159 161 157 171 176 177 180 178 184 195 202 203 207 209 217 223 230 234 239 243 247 250 253 255 257 258 259 260 261 262 262 263 265 265 266 266 266 266 267 267 267 266 267 267 268 269 269 269 269 268
214 214 217 220 219 213 215 212 213 213 213 201 200 194 195 197 196 195 194 201 177 180 150 158 157 159 168 164 177 181 181 189 187 195 202 211 210 213 215 225 229 232 235 239 244 248 251 255 256 257 259 261 262 263 264 264 264 265 265 265 265 266 267 267 267 268 268 268 268 268 268 268 268 267
218 219 215 217 216 207 208 209 210 200 194 191 195 194 190 193 193 192 195 181 191 183 180 164 162 169 178 177 177 182 192 188 193 196 202 204 207 207 217 225 230 235 236 240 245 248 252 255 258 260 262 264 265 266 268 268 268 269 269 268 268 267 267 267 267 268 268 269 269 269 269 268 268 267
225 219 221 220 214 207 205 203 193 188 196 204 204 203 199 198 197 196 200 202 197 189 186 183 180 174 175 186 176 174 187 187 195 201 207 210 217 221 223 226 230 232 237 242 247 252 255 258 261 263 265 266 266 268 268 267 267 267 266 266 267 267 267 267 267 267 268 268 267 268 267 267 266 266
235 225 220 221 211 201 196 193 188 179 201 196 193 195 196 193 194 193 197 198 192 194 198 181 180 180 181 181 177 175 177 191 197 202 207 212 218 224 228 230 226 233 239 244 249 254 257 259 262 263 263 265 266 267 268 269 269 269 269 268 268 267 267 267 267 267 267 267 267 267 267 266 266 266
238 233 225 218 207 197 197 199 198 197 203 196 201 197 191 192 189 185 189 187 192 195 185 186 169 195 190 187 182 184 182 187 193 206 214 217 219 224 229 225 222 217 219 221 238 247 251 254 257 259 261 263 266 267 268 268 268 269 269 270 270 268 268 267 268 267 266 266 265 265 265 264 264 264
243 235 231 224 210 204 204 206 206 204 205 202 205 202 197 188 188 184 188 181 189 194 177 186 193 190 194 188 180 179 179 191 198 201 207 220 220 221 224 228 219 216 224 235 243 247 250 255 259 262 264 266 267 269 269 269 268 267 267 266 266 267 266 266 266 266 265 264 263 263 263 263 262 262
241 235 228 222 218 214 213 209 211 203 204 202 205 200 193 186 184 189 186 181 179 174 171 186 192 195 185 191 191 176 176 189 207 211 214 222 220 221 219 222 230 233 244 257 257 256 259 260 262 263 265 264 265 265 266 266 265 265 266 265 266 266 266 266 266 266 265 264 263 262 262 261 261 261
238 236 228 225 225 220 219 215 213 206 200 197 202 201 187 187 184 169 178 173 163 162 168 179 191 194 192 192 187 183 182 190 196 192 205 227 230 227 230 240 241 242 250 253 257 259 256 262 257 260 259 257 261 263 263 263 262 261 261 262 264 264 265 264 265 266 266 265 264 263 262 261 261 261
235 234 231 228 224 224 222 220 216 210 202 202 204 197 183 184 182 181 179 176 169 169 173 182 187 192 200 195 187 186 184 182 185 201 206 212 215 219 243 249 245 250 252 258 259 255 251 254 260 256 259 258 255 257 255 251 252 254 258 263 266 267 267 265 264 265 266 265 265 264 263 262 261 261
228 227 230 236 229 223 224 219 216 215 199 197 197 194 185 185 181 182 185 170 166 171 181 179 188 198 200 198 189 182 177 180 190 195 204 209 215 214 220 240 240 225 236 251 259 264 254 254 264 265 267 269 267 263 260 261 263 264 267 269 269 268 267 266 268 268 268 267 265 265 264 263 261 261
230 235 233 232 229 220 214 204 205 201 193 194 195 192 188 188 189 186 186 173 165 168 174 180 189 192 194 186 186 179 173 181 185 196 200 201 206 213 220 234 233 221 186 270 276 274 270 273 272 272 267 267 264 261 263 265 267 269 270 271 272 271 271 270 272 271 269 268 268 266 264 263 262 261
224 228 230 227 217 212 210 201 199 201 198 197 191 190 193 194 193 196 195 182 182 182 175 184 190 191 184 185 191 179 172 176 178 183 193 203 210 218 228 231 239 252 265 279 277 276 278 273 268 267 264 262 265 266 267 265 266 269 269 270 270 270 270 271 274 273 272 270 268 268 267 265 264 264
220 216 216 218 210 199 188 193 201 195 194 191 199 198 196 196 201 201 201 200 187 180 183 189 191 185 182 184 179 171 167 175 173 182 195 201 214 222 232 246 260 266 287 273 287 281 268 254 258 261 262 260 267 265 267 270 272 271 271 271 271 271 272 275 274 273 272 271 269 268 267 267 266 265
214 207 210 207 200 199 194 199 193 189 184 184 187 187 184 185 188 195 198 198 196 188 185 190 192 175 173 172 166 161 154 156 163 176 190 212 224 242 327 312 264 265 260 257 256 259 250 246 263 264 271 271 269 271 273 273 273 272 271 271 272 274 274 276 275 275 274 273 271 271 270 269 268 267
206 198 198 207 212 202 199 196 194 182 173 172 164 164 164 166 179 189 194 192 188 180 176 179 178 174 163 153 132 133 134 142 154 159 146 87 117 203 252 255 254 248 244 225 229 255 261 256 265 273 272 273 272 271 268 269 269 270 271 273 274 275 276 277 277 276 275 273 272 272 271 270 269 268
221 216 212 212 207 190 193 189 191 182 174 166 164 158 156 153 158 169 180 195 192 185 180 182 173 167 174 157 153 160 162 158 154 150 175 205 203 208 225 239 232 240 227 219 229 259 277 261 269 280 275 272 274 272 265 263 264 265 268 271 274 276 280 278 277 277 278 276 274 273 271 268 268 269
208 201 202 208 193 183 179 188 187 185 176 168 165 155 146 149 148 152 163 177 193 188 180 182 181 176 184 180 165 152 156 160 159 162 192 197 192 212 217 240 240 264 268 252 234 259 252 275 271 281 284 280 250 242 247 256 260 267 270 274 278 279 278 277 279 279 280 279 277 276 272 269 267 270
193 196 204 200 187 171 183 187 189 187 175 162 163 151 145 150 151 157 160 169 169 170 164 170 155 124 108 93 99 123 143 163 169 180 187 168 179 207 223 231 248 275 253 195 136 180 261 286 287 317 313 288 269 222 253 258 291 292 291 285 281 274 277 279 279 279 281 281 279 276 272 268 266 267
157 177 175 182 172 175 183 188 190 191 170 163 161 152 155 153 149 146 152 156 152 147 138 127 126 126 112 106 98 91 93 112 148 151 189 193 187 206 219 214 205 222 249 120 202 234 290 257 270 303 269 305 311 5 329 296 278 276 273 279 274 278 279 279 280 279 279 279 279 278 275 272 266 264
154 156 165 165 179 177 183 192 192 192 173 166 155 152 152 159 144 142 138 142 133 130 125 125 134 136 142 132 132 131 142 154 166 166 179 187 193 194 194 205 213 234 242 170 177 178 243 289 287 303 276 247 270 300 290 291 288 271 269 264 273 277 277 277 279 280 280 280 279 278 276 273 270 264
157 157 156 153 177 181 180 188 192 192 170 156 127 150 149 146 148 143 133 137 133 131 135 138 144 146 154 161 151 149 151 150 157 165 167 172 189 206 235 208 215 230 229 150 215 220 256 266 253 283 280 287 282 272 295 293 279 280 267 263 265 276 282 286 281 278 281 277 275 273 271 270 270 267
154 141 133 148 171 173 176 186 187 194 164 146 141 160 158 151 147 137 134 132 124 130 144 148 152 154 157 159 157 156 158 146 147 152 167 162 170 221 243 266 254 250 266 301 12 53 168 252 251 250 268 275 284 293 277 283 294 279 288 283 284 282 281 276 276 278 281 282 277 276 277 275 273 271
129 140 144 159 168 174 177 181 184 187 153 142 156 163 160 144 135 128 132 134 135 136 134 147 151 153 151 143 151 154 132 124 131 134 127 152 175 212 239 241 249 250 257 259 254 227 224 246 261 246 243 259 269 276 288 273 269 294 297 295 285 286 277 270 275 277 275 273 270 268 266 270 269 270
135 150 155 160 165 168 172 174 183 160 145 152 152 157 138 118 121 130 131 131 131 138 145 154 151 145 141 125 87 71 80 91 93 115 171 207 220 220 227 239 239 242 235 240 233 222 216 221 242 249 243 240 249 262 265 279 294 295 293 302 298 277 278 274 276 277 275 269 268 266 266 267 271 270
135 145 153 158 162 162 165 166 135 120 138 147 151 128 113 117 117 125 125 135 142 144 149 150 156 136 115 102 104 100 116 142 165 175 182 177 193 192 214 229 233 224 227 228 221 217 209 217 231 232 243 245 243 261 265 281 285 279 286 282 283 291 262 262 255 258 276 280 278 278 274 275 276 275
133 140 144 153 153 144 145 122 122 123 132 121 106 109 111 106 114 116 123 136 140 142 146 143 114 102 104 105 119 145 155 157 145 150 181 202 222 208 248 274 280 282 227 203 215 211 207 218 223 216 232 250 252 248 262 263 277 282 279 277 281 280 290 282 279 274 272 277 283 280 278 277 274 267
127 126 119 102 82 87 83 86 82 91 93 106 110 104 95 80 83 96 100 88 77 91 110 95 102 110 129 136 140 137 158 148 141 154 192 198 227 214 266 254 278 296 306 262 211 206 209 216 219 222 224 239 257 266 262 261 267 275 279 278 273 271 275 282 287 285 287 290 288 282 277 277 275 274
84 92 103 106 103 93 103 101 106 110 109 101 100 98 94 91 100 108 141 135 130 123 120 132 136 135 141 133 133 138 150 156 148 168 177 174 205 260 226 258 280 300 315 308 310 295 244 228 219 225 235 242 245 257 270 276 261 263 273 276 279 276 281 286 292 292 296 290 282 282 284 278 271 272
109 104 101 109 120 112 99 105 105 107 101 115 111 110 110 110 120 128 135 127 121 131 124 126 130 142 145 139 152 156 148 144 149 157 149 159 189 245 274 287 282 287 293 298 307 302 301 289 277 256 250 251 250 246 245 250 263 264 261 273 277 281 286 294 290 290 289 286 293 294 287 285 279 268
115 119 117 114 110 115 111 110 116 117 120 119 119 116 126 121 131 137 123 117 116 113 114 124 133 139 154 142 154 150 140 138 140 154 175 191 198 238 260 271 278 290 303 305 300 299 302 301 299 296 285 286 287 255 224 227 249 259 268 267 278 287 293 295 297 298 291 286 283 279 284 285 285 282
124 119 119 126 126 127 122 118 118 122 122 126 123 132 135 142 137 139 124 121 127 127 133 142 138 147 133 129 133 135 126 128 156 183 181 192 200 237 242 253 265 281 289 286 291 301 304 297 303 307 313 317 324 317 325 213 220 242 276 287 289 289 290 294 295 292 291 289 275 273 282 285 289 293
126 133 133 132 129 132 128 132 135 133 134 134 139 144 142 141 146 106 102 124 120 128 146 144 144 140 129 126 124 122 137 168 190 160 192 188 200 224 251 259 263 280 288 279 286 295 292 294 293 300 304 308 307 302 286 311 286 277 267 283 290 290 297 301 302 296 286 285 284 267 269 277 282 287
127 126 132 141 146 131 130 137 134 132 134 136 138 139 135 127 108 99 117 131 134 127 140 136 121 122 135 145 147 154 159 174 153 193 194 190 208 238 265 299 296 300 291 290 287 285 287 285 292 294 297 292 301 296 302 311 316 303 284 296 298 299 300 298 298 300 301 292 277 280 274 274 278 286
123 126 127 127 128 129 131 140 142 136 132 134 139 143 135 118 118 136 153 147 143 143 150 142 137 150 143 147 159 145 160 169 188 186 176 187 200 232 279 280 288 296 299 293 292 283 284 280 285 292 281 280 271 278 289 297 294 289 300 298 294 291 290 295 299 300 299 301 297 286 267 265 272 276
113 117 124 131 128 122 120 127 132 135 138 142 144 136 137 142 144 153 157 151 145 151 147 147 145 131 136 150 143 121 83 92 189 209 163 197 202 208 244 276 286 289 284 283 293 291 286 280 285 294 288 273 269 270 272 274 277 279 279 283 289 293 295 302 301 302 300 295 296 301 303 311 313 316
123 120 120 123 122 120 128 131 130 129 134 133 134 141 144 140 153 161 156 150 145 151 156 146 143 156 154 146 165 162 166 173 193 191 184 200 216 218 236 259 267 250 266 284 283 285 280 281 293 289 281 274 272 274 276 276 287 298 302 301 305 306 304 304 301 298 295 299 299 299 304 312 314 316
125 128 122 125 128 126 129 134 131 128 135 144 149 148 144 149 146 149 149 145 134 141 149 151 146 165 143 146 156 162 186 193 183 188 186 194 235 247 216 214 244 256 262 274 280 279 284 289 289 289 279 277 283 290 287 290 297 302 301 304 304 308 311 310 310 306 295 295 301 308 313 310 305 297
127 124 122 119 112 121 122 124 130 131 135 146 151 150 151 148 145 146 141 146 150 156 170 158 151 159 159 159 162 178 187 195 192 197 176 191 213 241 253 251 257 268 260 267 274 279 284 289 292 293 291 285 281 282 286 292 295 296 301 307 309 312 310 315 317 312 309 301 288 293 312 311 317 308
130 121 119 122 132 131 126 131 138 140 138 149 151 154 161 153 153 153 152 149 157 171 175 163 150 164 165 162 160 171 196 200 186 177 193 206 211 225 249 264 270 267 265 268 277 283 292 296 295 294 291 288 294 292 290 298 297 298 298 301 304 313 315 322 318 317 314 307 304 315 319 319 310 300
140 135 135 144 145 142 141 143 146 146 143 144 148 160 154 149 142 145 148 144 152 158 169 175 160 168 168 164 172 188 195 205 196 179 188 209 218 222 223 238 250 259 269 277 289 289 297 301 298 287 280 287 289 280 289 292 294 299 299 305 309 313 320 322 325 324 319 313 320 328 331 329 327 325